Tracking 23885 objects as of 28-Nov-2021
HD Live streaming from Space Station
objects crossing your sky now

SPACEBEE-84

Track SPACEBEE-84 now!
10-day predictions


NORAD ID: 47706
Int'l Code: 2021-015H
Perigee: 491.9 km
Apogee: 506.8 km
Inclination: 97.4 °
Period: 94.5 minutes
Semi major axis: 6870 km
RCS: Unknown
Launch date: February 28, 2021
Source: United States (US)
Launch site: SRIHARIKOTA (SRI)
aabbcc
Your satellite tracking list
Your tracking list is empty




NASA's NSSDC Master Catalog

Two Line Element Set (TLE):
1 47706U 21015H   21331.47093123  .00007858  00000-0  32168-3 0  9993
2 47706  97.4392  44.4457 0010866  67.5812 292.6575 15.24531250 41412
Source of the keplerian elements: AFSPC